| time (UTC) | temp C | wind direction | speed KPH | gust KPH | rain 1hr cm | rain 24hr cm | rain mn cm | humidity % | barometer mb |
| 20260509124932 | 13 | 284 | 3.2 | 11.3 | 0.00 | 0.46 | 0.46 | 96 | 1007.5 |
| 20260509124656 | 13 | 273 | 3.2 | 9.7 | 0.00 | 0.46 | 0.46 | 96 | 1007.5 |
| 20260509124548 | 12 | 286 | 3.2 | 8.0 | 0.00 | 0.46 | 0.46 | 96 | 1007.3 |
| 20260509123927 | 12 | 288 | 3.2 | 12.9 | 0.00 | 0.46 | 0.46 | 96 | 1007.4 |
| 20260509123423 | 12 | 288 | 4.8 | 12.9 | 0.00 | 0.46 | 0.46 | 96 | 1007.4 |
| 20260509123144 | 12 | 287 | 4.8 | 11.3 | 0.00 | 0.46 | 0.46 | 96 | 1007.3 |
| 20260509123001 | 12 | 288 | 3.2 | 12.9 | 0.00 | 0.46 | 0.46 | 96 | 1007.1 |
| 20260509122640 | 12 | 288 | 3.2 | 11.3 | 0.00 | 0.46 | 0.46 | 95 | 1007.4 |
| 20260509121914 | 12 | 286 | 1.6 | 6.4 | 0.00 | 0.46 | 0.46 | 96 | 1007.5 |
| 20260509121540 | 12 | 286 | 1.6 | 8.0 | 0.00 | 0.46 | 0.46 | 96 | 1007.1 |
| 20260509121408 | 12 | 286 | 3.2 | 8.0 | 0.00 | 0.46 | 0.46 | 96 | 1007.1 |
| 20260509120905 | 12 | 287 | 1.6 | 8.0 | 0.00 | 0.46 | 0.46 | 96 | 1007.4 |
| 20260509120338 | 12 | 288 | 1.6 | 4.8 | 0.00 | 0.46 | 0.46 | 96 | 1007.5 |
| 20260509120029 | 12 | 289 | 0.0 | 4.8 | 0.00 | 0.46 | 0.46 | 96 | 1007.3 |
| 20260509115835 | 12 | 289 | 1.6 | 4.8 | 0.03 | 0.46 | 0.46 | 96 | 1007.4 |
| 20260509115331 | 12 | 289 | 0.0 | 4.8 | 0.03 | 0.46 | 0.46 | 96 | 1007.5 |
| 20260509115056 | 12 | 290 | 0.0 | 4.8 | 0.03 | 0.46 | 0.46 | 96 | 1007.6 |
| 20260509114606 | 12 | 291 | 0.0 | 4.8 | 0.03 | 0.46 | 0.46 | 95 | 1007.5 |
| 20260509114302 | 12 | 291 | 1.6 | 4.8 | 0.03 | 0.46 | 0.46 | 95 | 1007.6 |
| 20260509113801 | 12 | 273 | 1.6 | 4.8 | 0.03 | 0.46 | 0.46 | 95 | 1007.5 |
| 20260509113232 | 12 | 273 | 0.0 | 3.2 | 0.05 | 0.46 | 0.46 | 95 | 1007.3 |
| 20260509113218 | 12 | 273 | 1.6 | 4.8 | 0.05 | 0.46 | 0.46 | 95 | 1007.2 |
| 20260509113033 | 12 | 273 | 0.0 | 1.6 | 0.05 | 0.46 | 0.46 | 95 | 1007.1 |
| 20260509112207 | 12 | 273 | 1.6 | 4.8 | 0.05 | 0.46 | 0.46 | 95 | 1007.0 |
| 20260509111636 | 12 | 273 | 1.6 | 4.8 | 0.05 | 0.46 | 0.46 | 95 | 1006.8 |
| 20260509111546 | 12 | 273 | 1.6 | 4.8 | 0.05 | 0.46 | 0.46 | 95 | 1006.6 |
| 20260509111135 | 12 | 273 | 0.0 | 1.6 | 0.08 | 0.46 | 0.46 | 95 | 1007.0 |
| 20260509110611 | 12 | 273 | 0.0 | 3.2 | 0.08 | 0.46 | 0.46 | 95 | 1007.2 |
| 20260509110042 | 12 | 273 | 0.0 | 3.2 | 0.08 | 0.43 | 0.43 | 95 | 1007.3 |
| 20260509105801 | 12 | 273 | 0.0 | 0.0 | 0.08 | 0.43 | 0.43 | 95 | 1007.5 |
| 20260509105013 | 12 | 273 | 0.0 | 0.0 | 0.08 | 0.43 | 0.43 | 95 | 1007.5 |
| 20260509104503 | 12 | 273 | 0.0 | 0.0 | 0.10 | 0.43 | 0.43 | 95 | 1007.3 |
| 20260509104444 | 12 | 273 | 0.0 | 0.0 | 0.10 | 0.43 | 0.43 | 95 | 1007.5 |
| 20260509103943 | 12 | 273 | 0.0 | 0.0 | 0.10 | 0.43 | 0.43 | 95 | 1007.6 |
| 20260509103417 | 12 | 273 | 0.0 | 3.2 | 0.08 | 0.41 | 0.41 | 95 | 1007.8 |
| 20260509103038 | 12 | 273 | 0.0 | 3.2 | 0.10 | 0.41 | 0.41 | 95 | 1007.8 |
| 20260509102849 | 12 | 273 | 0.0 | 3.2 | 0.10 | 0.41 | 0.41 | 95 | 1007.8 |
| 20260509102344 | 12 | 273 | 0.0 | 3.2 | 0.10 | 0.41 | 0.41 | 95 | 1007.7 |
| 20260509102111 | 12 | 273 | 0.0 | 3.2 | 0.10 | 0.41 | 0.41 | 95 | 1007.7 |
| 20260509101318 | 12 | 273 | 0.0 | 3.2 | 0.08 | 0.38 | 0.38 | 95 | 1007.7 |
| 20260509100819 | 12 | 273 | 0.0 | 1.6 | 0.08 | 0.38 | 0.38 | 95 | 1007.7 |
| 20260509100510 | 12 | 273 | 0.0 | 3.2 | 0.08 | 0.36 | 0.38 | 95 | 1007.8 |
| 20260509100006 | 12 | 273 | 0.0 | 3.2 | 0.08 | 0.36 | 0.36 | 95 | 1007.6 |
| 20260509095735 | 12 | 273 | 0.0 | 3.2 | 0.08 | 0.36 | 0.36 | 95 | 1007.8 |
| 20260509095232 | 12 | 273 | 0.0 | 3.2 | 0.08 | 0.36 | 0.36 | 95 | 1008.0 |
| 20260509094730 | 12 | 290 | 0.0 | 3.2 | 0.08 | 0.33 | 0.33 | 95 | 1008.0 |
| 20260509094531 | 12 | 290 | 0.0 | 1.6 | 0.08 | 0.33 | 0.33 | 95 | 1007.7 |
| 20260509094449 | 12 | 290 | 0.0 | 0.0 | 0.08 | 0.33 | 0.33 | 95 | 1007.8 |
| 20260509093703 | 12 | 290 | 0.0 | 0.0 | 0.08 | 0.33 | 0.33 | 95 | 1007.8 |
| 20260509093201 | 12 | 290 | 0.0 | 0.0 | 0.05 | 0.30 | 0.30 | 95 | 1007.8 |
| 20260509093021 | 12 | 290 | 0.0 | 0.0 | 0.05 | 0.30 | 0.30 | 95 | 1007.6 |
| 20260509092644 | 12 | 290 | 0.0 | 0.0 | 0.08 | 0.30 | 0.30 | 95 | 1007.8 |
| 20260509092146 | 12 | 290 | 0.0 | 0.0 | 0.08 | 0.30 | 0.30 | 95 | 1007.9 |
| 20260509091622 | 12 | 290 | 0.0 | 3.2 | 0.08 | 0.30 | 0.30 | 95 | 1007.9 |
| 20260509091532 | 12 | 290 | 0.0 | 3.2 | 0.08 | 0.30 | 0.30 | 95 | 1007.8 |
| 20260509091121 | 12 | 273 | 0.0 | 3.2 | 0.10 | 0.30 | 0.30 | 95 | 1008.0 |
| 20260509090556 | 12 | 273 | 0.0 | 3.2 | 0.10 | 0.30 | 0.30 | 95 | 1008.1 |
| 20260509090109 | 12 | 273 | 0.0 | 3.2 | 0.08 | 0.28 | 0.28 | 95 | 1008.1 |
| 20260509090051 | 12 | 273 | 0.0 | 3.2 | 0.08 | 0.28 | 0.28 | 95 | 1008.2 |
| 20260509085551 | 12 | 273 | 0.0 | 1.6 | 0.08 | 0.28 | 0.28 | 95 | 1008.3 |
| 20260509085030 | 12 | 273 | 0.0 | 3.2 | 0.10 | 0.28 | 0.28 | 95 | 1008.4 |
| 20260509084550 | 12 | 273 | 0.0 | 3.2 | 0.08 | 0.25 | 0.25 | 95 | 1008.3 |
| 20260509084509 | 12 | 273 | 0.0 | 3.2 | 0.08 | 0.25 | 0.25 | 95 | 1008.4 |
| 20260509083955 | 12 | 273 | 1.6 | 4.8 | 0.08 | 0.25 | 0.25 | 95 | 1008.5 |
| 20260509083456 | 12 | 273 | 1.6 | 4.8 | 0.08 | 0.25 | 0.25 | 95 | 1008.6 |
| 20260509083009 | 12 | 273 | 0.0 | 3.2 | 0.10 | 0.25 | 0.25 | 94 | 1008.4 |
| 20260509082952 | 12 | 273 | 0.0 | 3.2 | 0.10 | 0.25 | 0.25 | 94 | 1008.5 |
| 20260509082453 | 12 | 273 | 0.0 | 1.6 | 0.08 | 0.23 | 0.23 | 94 | 1008.5 |
| 20260509082206 | 12 | 273 | 0.0 | 1.6 | 0.08 | 0.23 | 0.23 | 94 | 1008.5 |
| 20260509081529 | 12 | 273 | 0.0 | 1.6 | 0.08 | 0.23 | 0.23 | 94 | 1008.4 |
| 20260509081451 | 12 | 273 | 0.0 | 1.6 | 0.08 | 0.23 | 0.23 | 94 | 1008.5 |
| 20260509080929 | 12 | 273 | 0.0 | 1.6 | 0.05 | 0.20 | 0.20 | 94 | 1008.4 |
| 20260509080428 | 12 | 273 | 0.0 | 1.6 | 0.08 | 0.20 | 0.20 | 94 | 1008.4 |
| 20260509080106 | 12 | 273 | 0.0 | 1.6 | 0.08 | 0.20 | 0.20 | 94 | 1008.3 |
| 20260509075909 | 12 | 273 | 0.0 | 1.6 | 0.08 | 0.20 | 0.20 | 94 | 1008.3 |
| 20260509075350 | 12 | 273 | 0.0 | 1.6 | 0.10 | 0.20 | 0.20 | 94 | 1008.4 |
| 20260509074841 | 12 | 273 | 0.0 | 1.6 | 0.08 | 0.18 | 0.18 | 94 | 1008.3 |
| 20260509074600 | 12 | 273 | 0.0 | 1.6 | 0.08 | 0.18 | 0.18 | 94 | 1008.3 |
| 20260509074523 | 12 | 273 | 0.0 | 1.6 | 0.08 | 0.18 | 0.18 | 94 | 1008.2 |
| 20260509073836 | 12 | 273 | 0.0 | 1.6 | 0.08 | 0.18 | 0.18 | 94 | 1008.2 |
| 20260509073338 | 12 | 273 | 0.0 | 0.0 | 0.05 | 0.15 | 0.18 | 94 | 1008.3 |
| 20260509073002 | 12 | 273 | 0.0 | 0.0 | 0.05 | 0.15 | 0.15 | 94 | 1008.2 |
| 20260509072814 | 12 | 273 | 0.0 | 0.0 | 0.05 | 0.15 | 0.15 | 94 | 1008.3 |
| 20260509072250 | 12 | 273 | 0.0 | 0.0 | 0.05 | 0.15 | 0.15 | 94 | 1008.5 |
| 20260509071734 | 12 | 273 | 0.0 | 0.0 | 0.05 | 0.15 | 0.15 | 94 | 1008.6 |
| 20260509071553 | 12 | 273 | 0.0 | 0.0 | 0.05 | 0.15 | 0.15 | 94 | 1008.5 |
| 20260509071202 | 12 | 273 | 0.0 | 0.0 | 0.08 | 0.15 | 0.15 | 94 | 1008.7 |
| 20260509070702 | 12 | 273 | 0.0 | 0.0 | 0.05 | 0.13 | 0.13 | 94 | 1008.9 |
| 20260509070202 | 12 | 273 | 0.0 | 1.6 | 0.05 | 0.13 | 0.13 | 94 | 1009.0 |
| 20260509070024 | 12 | 273 | 0.0 | 1.6 | 0.05 | 0.13 | 0.13 | 94 | 1008.8 |
| 20260509065652 | 12 | 273 | 0.0 | 3.2 | 0.05 | 0.13 | 0.13 | 94 | 1009.0 |
| 20260509065151 | 12 | 273 | 0.0 | 3.2 | 0.03 | 0.10 | 0.10 | 94 | 1009.0 |
| 20260509064912 | 12 | 273 | 0.0 | 4.8 | 0.03 | 0.10 | 0.10 | 94 | 1009.1 |
| 20260509064509 | 12 | 273 | 0.0 | 4.8 | 0.03 | 0.10 | 0.10 | 94 | 1008.9 |
| 20260509064124 | 12 | 273 | 0.0 | 4.8 | 0.03 | 0.10 | 0.10 | 93 | 1009.1 |
| 20260509063601 | 12 | 273 | 0.0 | 1.6 | 0.05 | 0.10 | 0.10 | 94 | 1009.1 |
| 20260509063035 | 12 | 273 | 0.0 | 3.2 | 0.05 | 0.10 | 0.10 | 93 | 1009.2 |
| 20260509063007 | 12 | 273 | 0.0 | 1.6 | 0.05 | 0.10 | 0.10 | 93 | 1009.0 |
| 20260509062512 | 12 | 273 | 1.6 | 3.2 | 0.05 | 0.10 | 0.10 | 93 | 1009.2 |
| 20260509061944 | 12 | 273 | 1.6 | 4.8 | 0.05 | 0.10 | 0.10 | 93 | 1009.3 |
| 20260509061555 | 12 | 273 | 0.0 | 4.8 | 0.05 | 0.10 | 0.10 | 93 | 1009.0 |
| 20260509061432 | 12 | 273 | 0.0 | 4.8 | 0.03 | 0.08 | 0.08 | 93 | 1009.2 |
| 20260509060935 | 12 | 273 | 0.0 | 1.6 | 0.03 | 0.08 | 0.08 | 93 | 1009.1 |
| 20260509060704 | 12 | 273 | 0.0 | 0.0 | 0.03 | 0.08 | 0.08 | 93 | 1009.1 |
| 20260509060104 | 12 | 273 | 0.0 | 0.0 | 0.03 | 0.08 | 0.08 | 92 | 1008.9 |
| 20260509055910 | 12 | 273 | 0.0 | 3.2 | 0.03 | 0.08 | 0.08 | 93 | 1009.0 |
| 20260509055344 | 12 | 273 | 0.0 | 4.8 | 0.03 | 0.08 | 0.08 | 93 | 1008.9 |
| 20260509054818 | 12 | 273 | 0.0 | 4.8 | 0.03 | 0.08 | 0.08 | 92 | 1008.9 |
| 20260509054258 | 12 | 273 | 1.6 | 4.8 | 0.03 | 0.08 | 0.08 | 92 | 1009.0 |
| 20260509053757 | 12 | 273 | 1.6 | 4.8 | 0.03 | 0.05 | 0.05 | 92 | 1009.0 |
| 20260509053257 | 12 | 273 | 0.0 | 3.2 | 0.03 | 0.05 | 0.05 | 92 | 1009.0 |
| 20260509053023 | 12 | 273 | 0.0 | 3.2 | 0.03 | 0.05 | 0.05 | 92 | 1008.9 |
| 20260509052949 | 12 | 273 | 0.0 | 3.2 | 0.03 | 0.05 | 0.05 | 92 | 1009.1 |
| 20260509052200 | 12 | 273 | 0.0 | 1.6 | 0.03 | 0.05 | 0.05 | 92 | 1009.1 |
| 20260509052152 | 12 | 273 | 0.0 | 4.8 | 0.05 | 0.05 | 0.05 | 92 | 1009.1 |
| 20260509051619 | 12 | 273 | 1.6 | 4.8 | 0.05 | 0.05 | 0.05 | 91 | 1009.2 |
| 20260509051517 | 12 | 273 | 0.0 | 4.8 | 0.05 | 0.05 | 0.05 | 91 | 1009.0 |
| 20260509050839 | 12 | 273 | 1.6 | 4.8 | 0.05 | 0.05 | 0.05 | 91 | 1009.1 |
| 20260509050117 | 12 | 273 | 1.6 | 4.8 | 0.05 | 0.05 | 0.05 | 91 | 1009.1 |
| 20260509050059 | 12 | 273 | 1.6 | 4.8 | 0.05 | 0.05 | 0.05 | 91 | 1009.3 |
| 20260509050039 | 12 | 273 | 0.0 | 4.8 | 0.05 | 0.05 | 0.05 | 91 | 1009.0 |
| 20260509045115 | 12 | 291 | 0.0 | 3.2 | 0.05 | 0.05 | 0.05 | 90 | 1009.3 |
| 20260509044606 | 12 | 291 | 0.0 | 1.6 | 0.05 | 0.05 | 0.05 | 90 | 1009.3 |
| 20260509044516 | 12 | 273 | 0.0 | 1.6 | 0.05 | 0.05 | 0.05 | 90 | 1009.2 |
| 20260509044104 | 12 | 273 | 0.0 | 3.2 | 0.05 | 0.05 | 0.05 | 90 | 1009.4 |
| 20260509044016 | 13 | 273 | 0.0 | 4.8 | 0.03 | 0.03 | 0.03 | 89 | 1009.3 |
| 20260509043052 | 12 | 273 | 0.0 | 4.8 | 0.03 | 0.03 | 0.03 | 89 | 1009.3 |
| 20260509043014 | 13 | 273 | 0.0 | 4.8 | 0.03 | 0.03 | 0.03 | 89 | 1009.4 |
| 20260509042446 | 13 | 273 | 0.0 | 1.6 | 0.03 | 0.03 | 0.03 | 89 | 1009.4 |
| 20260509041921 | 13 | 273 | 0.0 | 3.2 | 0.00 | 0.00 | 0.00 | 88 | 1009.5 |
| 20260509041834 | 13 | 273 | 0.0 | 3.2 | 0.00 | 0.00 | 0.00 | 88 | 1009.6 |
| 20260509041520 | 12 | 273 | 0.0 | 3.2 | 0.00 | 0.00 | 0.00 | 88 | 1009.4 |
| 20260509040850 | 13 | 273 | 0.0 | 3.2 | 0.00 | 0.00 | 0.00 | 88 | 1009.5 |
| 20260509040322 | 13 | 273 | 1.6 | 4.8 | 0.00 | 0.00 | 0.00 | 88 | 1009.5 |
| 20260509040011 | 13 | 273 | 0.0 | 4.8 | 0.00 | 0.00 | 0.00 | 87 | 1009.5 |
| 20260509035820 | 13 | 273 | 1.6 | 4.8 | 0.00 | 0.00 | 0.00 | 87 | 1009.5 |
| 20260509035251 | 13 | 273 | 0.0 | 1.6 | 0.00 | 0.00 | 0.00 | 86 | 1009.6 |
| 20260509034750 | 13 | 273 | 0.0 | 1.6 | 0.00 | 0.00 | 0.00 | 86 | 1009.6 |
| 20260509034515 | 13 | 273 | 0.0 | 1.6 | 0.00 | 0.00 | 0.00 | 85 | 1009.6 |
| 20260509034226 | 13 | 273 | 0.0 | 1.6 | 0.00 | 0.00 | 0.00 | 85 | 1009.6 |
| 20260509033657 | 13 | 273 | 0.0 | 4.8 | 0.00 | 0.00 | 0.00 | 84 | 1009.7 |
| 20260509033154 | 13 | 273 | 0.0 | 4.8 | 0.00 | 0.00 | 0.00 | 84 | 1009.7 |
| 20260509033014 | 13 | 273 | 0.0 | 4.8 | 0.00 | 0.00 | 0.00 | 84 | 1009.7 |
| 20260509032625 | 13 | 273 | 0.0 | 4.8 | 0.00 | 0.00 | 0.00 | 84 | 1009.7 |
| 20260509032351 | 13 | 273 | 0.0 | 4.8 | 0.00 | 0.00 | 0.00 | 83 | 1009.7 |
| 20260509031755 | 13 | 273 | 0.0 | 4.8 | 0.00 | 0.00 | 0.00 | 83 | 1009.7 |
| 20260509031639 | 13 | 291 | 0.0 | 4.8 | 0.00 | 0.00 | 0.00 | 83 | 1009.7 |
| 20260509031506 | 13 | 273 | 1.6 | 3.2 | 0.00 | 0.00 | 0.00 | 83 | 1009.6 |
| 20260509030527 | 13 | 273 | 1.6 | 4.8 | 0.00 | 0.00 | 0.00 | 82 | 1009.8 |
| 20260509030103 | 13 | 273 | 0.0 | 8.0 | 0.00 | 0.00 | 0.00 | 82 | 1009.9 |
| 20260509030025 | 13 | 290 | 1.6 | 8.0 | 0.00 | 0.00 | 0.00 | 82 | 1009.9 |
| 20260509025456 | 13 | 290 | 1.6 | 8.0 | 0.00 | 0.00 | 0.00 | 81 | 1009.8 |
| 20260509024956 | 13 | 289 | 1.6 | 6.4 | 0.00 | 0.00 | 0.00 | 81 | 1009.9 |
| 20260509024556 | 13 | 288 | 0.0 | 4.8 | 0.00 | 0.00 | 0.00 | 81 | 1009.9 |
| 20260509024425 | 13 | 288 | 1.6 | 6.4 | 0.00 | 0.00 | 0.00 | 81 | 1009.9 |
| 20260509023924 | 14 | 288 | 1.6 | 6.4 | 0.00 | 0.00 | 0.00 | 81 | 1009.9 |
| 20260509023357 | 14 | 288 | 3.2 | 8.0 | 0.00 | 0.00 | 0.00 | 80 | 1009.9 |
| 20260509023112 | 14 | 288 | 3.2 | 8.0 | 0.00 | 0.00 | 0.00 | 80 | 1009.8 |
| 20260509023045 | 13 | 288 | 1.6 | 8.0 | 0.00 | 0.00 | 0.00 | 80 | 1009.8 |
| 20260509022350 | 14 | 284 | 1.6 | 8.0 | 0.00 | 0.00 | 0.00 | 78 | 1009.8 |
| 20260509021843 | 14 | 285 | 3.2 | 8.0 | 0.00 | 0.00 | 0.00 | 78 | 1009.5 |
| 20260509021535 | 14 | 285 | 3.2 | 8.0 | 0.00 | 0.00 | 0.00 | 78 | 1009.4 |
| 20260509021342 | 14 | 273 | 3.2 | 6.4 | 0.00 | 0.00 | 0.00 | 78 | 1009.4 |
| 20260509020817 | 14 | 291 | 3.2 | 6.4 | 0.00 | 0.00 | 0.00 | 78 | 1009.4 |
| 20260509020312 | 14 | 290 | 3.2 | 6.4 | 0.00 | 0.00 | 0.00 | 77 | 1009.4 |
| 20260509020110 | 14 | 290 | 1.6 | 6.4 | 0.00 | 0.00 | 0.00 | 77 | 1009.3 |
| 20260509015810 | 15 | 290 | 3.2 | 6.4 | 0.00 | 0.00 | 0.00 | 76 | 1009.4 |
| 20260509015306 | 15 | 290 | 3.2 | 6.4 | 0.00 | 0.00 | 0.00 | 76 | 1009.4 |
| 20260509014805 | 15 | 290 | 3.2 | 6.4 | 0.00 | 0.00 | 0.00 | 75 | 1009.4 |
| 20260509014536 | 14 | 290 | 3.2 | 6.4 | 0.00 | 0.00 | 0.00 | 75 | 1009.3 |
| 20260509014239 | 15 | 289 | 1.6 | 4.8 | 0.00 | 0.00 | 0.00 | 74 | 1009.4 |
| 20260509013713 | 15 | 288 | 1.6 | 4.8 | 0.00 | 0.00 | 0.00 | 74 | 1009.5 |
| 20260509013146 | 15 | 290 | 1.6 | 4.8 | 0.00 | 0.00 | 0.00 | 73 | 1009.4 |
| 20260509013004 | 15 | 290 | 0.0 | 4.8 | 0.00 | 0.00 | 0.00 | 73 | 1009.3 |
| 20260509012621 | 15 | 273 | 1.6 | 4.8 | 0.00 | 0.00 | 0.00 | 72 | 1009.3 |
| 20260509012111 | 15 | 273 | 3.2 | 14.5 | 0.00 | 0.00 | 0.00 | 71 | 1009.3 |
| 20260509011832 | 16 | 273 | 4.8 | 14.5 | 0.00 | 0.00 | 0.00 | 68 | 1009.4 |
| 20260509011605 | 15 | 273 | 1.6 | 14.5 | 0.00 | 0.00 | 0.00 | 68 | 1009.3 |
| 20260509011044 | 16 | 273 | 4.8 | 11.3 | 0.00 | 0.00 | 0.00 | 66 | 1009.5 |
| 20260509010757 | 16 | 288 | 3.2 | 11.3 | 0.00 | 0.00 | 0.00 | 61 | 1009.3 |
| 20260509010038 | 17 | 286 | 1.6 | 4.8 | 0.00 | 0.00 | 0.00 | 57 | 1009.3 |
| 20260509010015 | 17 | 286 | 3.2 | 4.8 | 0.00 | 0.00 | 0.00 | 58 | 1009.3 |
| 20260509005531 | 17 | 286 | 1.6 | 4.8 | 0.00 | 0.00 | 0.00 | 55 | 1009.2 |
| 20260509005030 | 17 | 287 | 1.6 | 3.2 | 0.00 | 0.00 | 0.00 | 55 | 1008.9 |
| 20260509004519 | 17 | 287 | 0.0 | 3.2 | 0.00 | 0.00 | 0.00 | 53 | 1008.7 |
| 20260509004501 | 17 | 286 | 1.6 | 3.2 | 0.00 | 0.00 | 0.00 | 53 | 1008.7 |
| 20260509004002 | 17 | 287 | 1.6 | 3.2 | 0.00 | 0.00 | 0.00 | 53 | 1008.7 |
| 20260509003458 | 17 | 286 | 1.6 | 3.2 | 0.00 | 0.00 | 0.00 | 53 | 1008.5 |
| 20260509003034 | 17 | 286 | 0.0 | 3.2 | 0.00 | 0.00 | 0.00 | 54 | 1008.5 |
| 20260509002954 | 17 | 286 | 1.6 | 3.2 | 0.00 | 0.00 | 0.00 | 54 | 1008.5 |
| 20260509002650 | 17 | 286 | 1.6 | 3.2 | 0.00 | 0.00 | 0.00 | 51 | 1008.6 |
| 20260509002150 | 17 | 286 | 1.6 | 3.2 | 0.00 | 0.00 | 0.00 | 52 | 1008.6 |
| 20260509001548 | 17 | 286 | 0.0 | 3.2 | 0.00 | 0.00 | 0.00 | 52 | 1008.7 |
| 20260509001358 | 17 | 286 | 1.6 | 3.2 | 0.00 | 0.00 | 0.00 | 52 | 1008.7 |
| 20260509000837 | 17 | 286 | 1.6 | 3.2 | 0.00 | 0.00 | 0.00 | 52 | 1008.9 |
| 20260509000333 | 17 | 286 | 1.6 | 3.2 | 0.00 | 0.00 | 0.00 | 53 | 1008.7 |
| 20260509000108 | 17 | 286 | 0.0 | 3.2 | 0.00 | 0.00 | 0.00 | 53 | 1008.8 |
| 20260508235811 | 17 | 287 | 1.6 | 3.2 | 0.00 | 0.00 | 0.00 | 53 | 1008.7 |
| 20260508235251 | 17 | 286 | 0.0 | 1.6 | 0.00 | 0.00 | 0.00 | 53 | 1008.7 |
| 20260508234755 | 17 | 286 | 0.0 | 0.0 | 0.00 | 0.00 | 0.00 | 56 | 1008.6 |
| 20260508234507 | 17 | 286 | 0.0 | 0.0 | 0.00 | 0.00 | 0.00 | 57 | 1008.7 |
| 20260508234233 | 17 | 286 | 0.0 | 0.0 | 0.00 | 0.00 | 0.00 | 57 | 1008.6 |
| 20260508233730 | 18 | 286 | 0.0 | 4.8 | 0.00 | 0.00 | 0.00 | 56 | 1008.5 |
| 20260508233222 | 18 | 286 | 1.6 | 4.8 | 0.00 | 0.00 | 0.00 | 55 | 1008.5 |
| 20260508233040 | 17 | 286 | 0.0 | 4.8 | 0.00 | 0.00 | 0.00 | 55 | 1008.6 |
| 20260508232917 | 18 | 286 | 1.6 | 4.8 | 0.00 | 0.00 | 0.00 | 54 | 1008.6 |
| 20260508232153 | 18 | 286 | 1.6 | 4.8 | 0.00 | 0.00 | 0.00 | 54 | 1008.9 |
| 20260508231917 | 18 | 286 | 1.6 | 4.8 | 0.00 | 0.00 | 0.00 | 53 | 1008.7 |
| 20260508231556 | 18 | 286 | 0.0 | 4.8 | 0.00 | 0.00 | 0.00 | 54 | 1008.8 |
| 20260508231152 | 18 | 286 | 1.6 | 12.9 | 0.00 | 0.00 | 0.00 | 52 | 1008.7 |
| 20260508230859 | 18 | 286 | 4.8 | 12.9 | 0.00 | 0.00 | 0.00 | 50 | 1008.6 |
| 20260508230134 | 18 | 286 | 4.8 | 14.5 | 0.00 | 0.00 | 0.00 | 49 | 1008.5 |
| 20260508230105 | 18 | 286 | 3.2 | 14.5 | 0.00 | 0.00 | 0.00 | 49 | 1008.5 |
| 20260508225831 | 19 | 286 | 3.2 | 14.5 | 0.00 | 0.00 | 0.00 | 48 | 1008.6 |
| 20260508225040 | 19 | 286 | 3.2 | 6.4 | 0.00 | 0.00 | 0.00 | 48 | 1008.5 |
| 20260508224743 | 19 | 286 | 3.2 | 14.5 | 0.00 | 0.00 | 0.00 | 46 | 1008.4 |
| 20260508224533 | 19 | 286 | 1.6 | 14.5 | 0.00 | 0.00 | 0.00 | 46 | 1008.5 |
| 20260508224505 | 19 | 286 | 4.8 | 14.5 | 0.00 | 0.00 | 0.00 | 44 | 1008.4 |
| 20260508223456 | 19 | 100 | 4.8 | 12.9 | 0.00 | 0.00 | 0.00 | 44 | 1008.3 |
| 20260508223159 | 20 | 159 | 4.8 | 12.9 | 0.00 | 0.00 | 0.00 | 44 | 1008.4 |
| 20260508223102 | 19 | 126 | 3.2 | 12.9 | 0.00 | 0.00 | 0.00 | 43 | 1008.5 |
| 20260508222434 | 20 | 105 | 4.8 | 12.9 | 0.00 | 0.00 | 0.00 | 43 | 1008.4 |
| 20260508222130 | 20 | 24 | 3.2 | 8.0 | 0.00 | 0.00 | 0.00 | 44 | 1008.4 |
| 20260508221515 | 19 | 139 | 4.8 | 8.0 | 0.00 | 0.00 | 0.00 | 43 | 1008.4 |
| 20260508221348 | 20 | 147 | 3.2 | 11.3 | 0.00 | 0.00 | 0.00 | 43 | 1008.3 |
| 20260508220846 | 20 | 133 | 3.2 | 9.7 | 0.00 | 0.00 | 0.00 | 43 | 1008.4 |
| 20260508220331 | 20 | 133 | 4.8 | 14.5 | 0.00 | 0.00 | 0.00 | 42 | 1008.4 |
| 20260508220113 | 19 | 142 | 3.2 | 16.1 | 0.00 | 0.00 | 0.00 | 42 | 1008.5 |
| 20260508215811 | 20 | 130 | 4.8 | 16.1 | 0.00 | 0.00 | 0.00 | 42 | 1008.4 |
| 20260508215249 | 20 | 144 | 6.4 | 19.3 | 0.00 | 0.00 | 0.00 | 42 | 1008.4 |
| 20260508215209 | 20 | 149 | 8.0 | 19.3 | 0.00 | 0.00 | 0.00 | 42 | 1008.3 |
| 20260508214656 | 19 | 161 | 6.4 | 17.7 | 0.00 | 0.00 | 0.00 | 42 | 1008.3 |
| 20260508214502 | 19 | 109 | 8.0 | 17.7 | 0.00 | 0.00 | 0.00 | 41 | 1008.4 |
| 20260508213708 | 19 | 141 | 6.4 | 17.7 | 0.00 | 0.00 | 0.00 | 43 | 1008.3 |
| 20260508213208 | 20 | 154 | 6.4 | 16.1 | 0.00 | 0.00 | 0.00 | 43 | 1008.4 |
| 20260508213037 | 19 | 165 | 6.4 | 16.1 | 0.00 | 0.00 | 0.00 | 42 | 1008.5 |
| 20260508212647 | 20 | 189 | 6.4 | 14.5 | 0.00 | 0.00 | 0.00 | 42 | 1008.4 |
| 20260508212147 | 20 | 174 | 6.4 | 14.5 | 0.00 | 0.00 | 0.00 | 43 | 1008.5 |
| 20260508211647 | 20 | 224 | 4.8 | 14.5 | 0.00 | 0.00 | 0.00 | 42 | 1008.5 |
| 20260508211533 | 19 | 170 | 4.8 | 14.5 | 0.00 | 0.00 | 0.00 | 43 | 1008.7 |
| 20260508211142 | 20 | 132 | 4.8 | 14.5 | 0.00 | 0.00 | 0.00 | 42 | 1008.6 |
| 20260508210624 | 20 | 148 | 4.8 | 14.5 | 0.00 | 0.00 | 0.00 | 42 | 1008.5 |
| 20260508210036 | 19 | 122 | 1.6 | 14.5 | 0.00 | 0.00 | 0.00 | 42 | 1008.9 |
| 20260508205558 | 19 | 119 | 6.4 | 16.1 | 0.00 | 0.00 | 0.00 | 41 | 1008.9 |
| 20260508205037 | 19 | 160 | 8.0 | 19.3 | 0.00 | 0.00 | 0.00 | 41 | 1009.1 |
| 20260508204731 | 19 | 146 | 8.0 | 19.3 | 0.00 | 0.00 | 0.00 | 41 | 1009.2 |
| 20260508204552 | 19 | 162 | 8.0 | 19.3 | 0.00 | 0.00 | 0.00 | 40 | 1009.3 |
| 20260508203953 | 19 | 121 | 6.4 | 19.3 | 0.00 | 0.00 | 0.00 | 43 | 1009.3 |
| 20260508203429 | 19 | 198 | 6.4 | 17.7 | 0.00 | 0.00 | 0.00 | 42 | 1009.4 |
| 20260508203059 | 19 | 94 | 3.2 | 22.5 | 0.00 | 0.00 | 0.00 | 45 | 1009.5 |
| 20260508202931 | 20 | 238 | 8.0 | 16.1 | 0.00 | 0.00 | 0.00 | 42 | 1009.4 |
| 20260508202925 | 19 | 324 | 8.0 | 22.5 | 0.00 | 0.00 | 0.00 | 43 | 1009.4 |
| 20260508201905 | 20 | 170 | 8.0 | 22.5 | 0.00 | 0.00 | 0.00 | 42 | 1009.5 |
| 20260508201521 | 19 | 205 | 9.7 | 22.5 | 0.00 | 0.00 | 0.00 | 41 | 1009.6 |
| 20260508201405 | 20 | 174 | 6.4 | 22.5 | 0.00 | 0.00 | 0.00 | 44 | 1009.5 |
| 20260508200905 | 20 | 170 | 8.0 | 25.7 | 0.00 | 0.00 | 0.00 | 42 | 1009.6 |
| 20260508200338 | 20 | 228 | 8.0 | 25.7 | 0.00 | 0.00 | 0.00 | 41 | 1009.6 |
| 20260508200110 | 19 | 167 | 8.0 | 19.3 | 0.00 | 0.00 | 0.00 | 43 | 1009.7 |
| 20260508195813 | 19 | 193 | 8.0 | 19.3 | 0.00 | 0.00 | 0.00 | 42 | 1009.5 |
| 20260508195312 | 19 | 138 | 8.0 | 20.9 | 0.00 | 0.00 | 0.00 | 42 | 1009.7 |
| 20260508194748 | 19 | 207 | 6.4 | 17.7 | 0.00 | 0.00 | 0.00 | 41 | 1009.7 |
| 20260508194618 | 19 | 219 | 6.4 | 17.7 | 0.00 | 0.00 | 0.00 | 42 | 1009.8 |
| 20260508194220 | 20 | 141 | 8.0 | 17.7 | 0.00 | 0.00 | 0.00 | 40 | 1009.8 |
| 20260508193717 | 20 | 218 | 9.7 | 25.7 | 0.00 | 0.00 | 0.00 | 39 | 1009.7 |
| 20260508193211 | 20 | 205 | 9.7 | 25.7 | 0.00 | 0.00 | 0.00 | 39 | 1009.8 |
| 20260508193125 | 20 | 206 | 9.7 | 24.1 | 0.00 | 0.00 | 0.00 | 39 | 1009.9 |
| 20260508193041 | 19 | 207 | 9.7 | 25.7 | 0.00 | 0.00 | 0.00 | 41 | 1009.9 |
| 20260508192118 | 20 | 174 | 9.7 | 24.1 | 0.00 | 0.00 | 0.00 | 40 | 1009.9 |
| 20260508191615 | 20 | 217 | 11.3 | 27.4 | 0.00 | 0.00 | 0.00 | 38 | 1010.0 |
| 20260508191546 | 20 | 194 | 8.0 | 27.4 | 0.00 | 0.00 | 0.00 | 38 | 1010.1 |
| 20260508191110 | 20 | 195 | 11.3 | 27.4 | 0.00 | 0.00 | 0.00 | 37 | 1010.0 |
| 20260508190830 | 20 | 126 | 9.7 | 24.1 | 0.00 | 0.00 | 0.00 | 39 | 1010.0 |
| 20260508190106 | 20 | 139 | 9.7 | 17.7 | 0.00 | 0.00 | 0.00 | 40 | 1010.1 |
| 20260508190036 | 20 | 156 | 8.0 | 24.1 | 0.00 | 0.00 | 0.00 | 40 | 1010.2 |
| 20260508185801 | 20 | 145 | 11.3 | 25.7 | 0.00 | 0.00 | 0.00 | 40 | 1010.3 |
| 20260508185025 | 20 | 202 | 9.7 | 25.7 | 0.00 | 0.00 | 0.00 | 39 | 1010.5 |
| 20260508184550 | 20 | 159 | 12.9 | 25.7 | 0.00 | 0.00 | 0.00 | 41 | 1010.5 |
| 20260508184522 | 20 | 123 | 11.3 | 25.7 | 0.00 | 0.00 | 0.00 | 42 | 1010.4 |
| 20260508184025 | 20 | 89 | 9.7 | 24.1 | 0.00 | 0.00 | 0.00 | 42 | 1010.5 |
| 20260508183521 | 20 | 95 | 9.7 | 19.3 | 0.00 | 0.00 | 0.00 | 42 | 1010.6 |
| 20260508183035 | 19 | 158 | 8.0 | 32.2 | 0.00 | 0.00 | 0.00 | 42 | 1010.8 |
| 20260508182956 | 20 | 104 | 11.3 | 32.2 | 0.00 | 0.00 | 0.00 | 39 | 1010.7 |
| 20260508182429 | 20 | 203 | 8.0 | 29.0 | 0.00 | 0.00 | 0.00 | 41 | 1010.7 |
| 20260508181902 | 20 | 203 | 9.7 | 29.0 | 0.00 | 0.00 | 0.00 | 40 | 1010.8 |
| 20260508181525 | 20 | 84 | 4.8 | 29.0 | 0.00 | 0.00 | 0.00 | 41 | 1011.0 |
| 20260508181335 | 20 | 138 | 12.9 | 29.0 | 0.00 | 0.00 | 0.00 | 40 | 1011.0 |
| 20260508180810 | 20 | 157 | 11.3 | 29.0 | 0.00 | 0.00 | 0.00 | 43 | 1010.9 |
| 20260508180243 | 19 | 172 | 11.3 | 29.0 | 0.00 | 0.00 | 0.00 | 41 | 1011.1 |
| 20260508175715 | 19 | 175 | 9.7 | 29.0 | 0.00 | 0.00 | 0.00 | 39 | 1011.3 |
| 20260508175213 | 20 | 207 | 6.4 | 17.7 | 0.00 | 0.00 | 0.00 | 43 | 1011.3 |
| 20260508174907 | 19 | 107 | 8.0 | 24.1 | 0.00 | 0.00 | 0.00 | 48 | 1011.3 |
| 20260508174556 | 19 | 138 | 3.2 | 19.3 | 0.00 | 0.00 | 0.00 | 45 | 1011.4 |
| 20260508174143 | 19 | 136 | 11.3 | 24.1 | 0.00 | 0.00 | 0.00 | 43 | 1011.3 |
| 20260508173632 | 18 | 163 | 11.3 | 27.4 | 0.00 | 0.00 | 0.00 | 43 | 1011.5 |
| 20260508173136 | 18 | 132 | 8.0 | 27.4 | 0.00 | 0.00 | 0.00 | 44 | 1011.6 |
| 20260508173104 | 18 | 145 | 12.9 | 27.4 | 0.00 | 0.00 | 0.00 | 44 | 1011.8 |
| 20260508172827 | 18 | 105 | 8.0 | 22.5 | 0.00 | 0.00 | 0.00 | 46 | 1011.8 |
| 20260508172041 | 19 | 163 | 8.0 | 22.5 | 0.00 | 0.00 | 0.00 | 44 | 1011.8 |
| 20260508171555 | 18 | 159 | 4.8 | 14.5 | 0.00 | 0.00 | 0.00 | 46 | 1012.1 |
| 20260508171515 | 19 | 215 | 8.0 | 24.1 | 0.00 | 0.00 | 0.00 | 45 | 1011.9 |
| 20260508171011 | 19 | 118 | 11.3 | 24.1 | 0.00 | 0.00 | 0.00 | 45 | 1011.9 |
| 20260508170519 | 19 | 193 | 11.3 | 29.0 | 0.00 | 0.00 | 0.00 | 42 | 1011.9 |
| 20260508170021 | 19 | 172 | 8.0 | 29.0 | 0.00 | 0.00 | 0.00 | 45 | 1012.2 |
| 20260508165943 | 19 | 165 | 11.3 | 29.0 | 0.00 | 0.00 | 0.00 | 45 | 1012.2 |
| 20260508165417 | 19 | 88 | 12.9 | 32.2 | 0.00 | 0.00 | 0.00 | 44 | 1012.2 |
| 20260508164850 | 19 | 164 | 12.9 | 32.2 | 0.00 | 0.00 | 0.00 | 44 | 1012.4 |
| 20260508164504 | 19 | 207 | 9.7 | 30.6 | 0.00 | 0.00 | 0.00 | 45 | 1012.6 |
| 20260508164324 | 19 | 149 | 11.3 | 30.6 | 0.00 | 0.00 | 0.00 | 43 | 1012.6 |
| 20260508163758 | 19 | 74 | 11.3 | 30.6 | 0.00 | 0.00 | 0.00 | 45 | 1012.6 |
| 20260508163228 | 18 | 146 | 11.3 | 30.6 | 0.00 | 0.00 | 0.00 | 46 | 1012.6 |
| 20260508163027 | 18 | 103 | 11.3 | 25.7 | 0.00 | 0.00 | 0.00 | 46 | 1012.9 |
| 20260508162952 | 18 | 150 | 12.9 | 30.6 | 0.00 | 0.00 | 0.00 | 44 | 1012.7 |
| 20260508162158 | 18 | 127 | 12.9 | 30.6 | 0.00 | 0.00 | 0.00 | 45 | 1012.8 |
| 20260508161658 | 18 | 158 | 11.3 | 22.5 | 0.00 | 0.00 | 0.00 | 46 | 1012.7 |
| 20260508161542 | 18 | 172 | 9.7 | 19.3 | 0.00 | 0.00 | 0.00 | 47 | 1013.0 |
| 20260508161154 | 18 | 122 | 9.7 | 24.1 | 0.00 | 0.00 | 0.00 | 47 | 1012.8 |
| 20260508160650 | 18 | 99 | 8.0 | 24.1 | 0.00 | 0.00 | 0.00 | 48 | 1012.8 |
| 20260508160147 | 18 | 207 | 9.7 | 24.1 | 0.00 | 0.00 | 0.00 | 50 | 1012.8 |
| 20260508160129 | 18 | 149 | 8.0 | 22.5 | 0.00 | 0.00 | 0.00 | 48 | 1013.1 |
| 20260508155644 | 18 | 61 | 9.7 | 24.1 | 0.00 | 0.00 | 0.00 | 48 | 1013.1 |
| 20260508155142 | 18 | 134 | 11.3 | 32.2 | 0.00 | 0.00 | 0.00 | 46 | 1013.1 |
| 20260508154637 | 18 | 210 | 11.3 | 32.2 | 0.00 | 0.00 | 0.00 | 47 | 1013.2 |
| 20260508154522 | 17 | 167 | 12.9 | 30.6 | 0.00 | 0.00 | 0.00 | 47 | 1013.3 |
| 20260508154111 | 18 | 228 | 9.7 | 24.1 | 0.00 | 0.00 | 0.00 | 49 | 1013.2 |
| 20260508153546 | 17 | 130 | 11.3 | 24.1 | 0.00 | 0.00 | 0.00 | 48 | 1013.3 |
| 20260508153043 | 17 | 186 | 9.7 | 24.1 | 0.00 | 0.00 | 0.00 | 50 | 1013.5 |
| 20260508153017 | 17 | 226 | 9.7 | 24.1 | 0.00 | 0.00 | 0.00 | 50 | 1013.4 |
| 20260508152517 | 17 | 125 | 9.7 | 24.1 | 0.00 | 0.00 | 0.00 | 51 | 1013.4 |
| 20260508152429 | 17 | 162 | 9.7 | 27.4 | 0.00 | 0.00 | 0.00 | 49 | 1013.4 |
| 20260508151503 | 17 | 153 | 6.4 | 27.4 | 0.00 | 0.00 | 0.00 | 51 | 1013.7 |
| 20260508151445 | 17 | 147 | 9.7 | 27.4 | 0.00 | 0.00 | 0.00 | 51 | 1013.5 |
| 20260508150944 | 17 | 124 | 9.7 | 24.1 | 0.00 | 0.00 | 0.00 | 53 | 1013.5 |
| 20260508150438 | 16 | 159 | 9.7 | 24.1 | 0.00 | 0.00 | 0.00 | 50 | 1013.6 |
| 20260508150021 | 16 | 210 | 8.0 | 27.4 | 0.00 | 0.00 | 0.00 | 51 | 1013.9 |
| 20260508145937 | 16 | 165 | 11.3 | 27.4 | 0.00 | 0.00 | 0.00 | 50 | 1013.5 |
| 20260508145433 | 16 | 199 | 11.3 | 27.4 | 0.00 | 0.00 | 0.00 | 50 | 1013.5 |
| 20260508144932 | 16 | 134 | 12.9 | 25.7 | 0.00 | 0.00 | 0.00 | 50 | 1013.6 |
| 20260508144510 | 16 | 199 | 12.9 | 19.3 | 0.00 | 0.00 | 0.00 | 50 | 1013.9 |
| 20260508144428 | 16 | 143 | 9.7 | 22.5 | 0.00 | 0.00 | 0.00 | 51 | 1013.6 |
| 20260508143925 | 16 | 161 | 9.7 | 22.5 | 0.00 | 0.00 | 0.00 | 50 | 1013.6 |
| 20260508143423 | 16 | 184 | 9.7 | 22.5 | 0.00 | 0.00 | 0.00 | 50 | 1013.8 |
| 20260508143059 | 15 | 205 | 8.0 | 22.5 | 0.00 | 0.00 | 0.00 | 50 | 1014.0 |
| 20260508142920 | 15 | 123 | 11.3 | 25.7 | 0.00 | 0.00 | 0.00 | 49 | 1013.8 |
| 20260508142419 | 15 | 34 | 11.3 | 25.7 | 0.00 | 0.00 | 0.00 | 49 | 1013.8 |
| 20260508141917 | 15 | 151 | 11.3 | 25.7 | 0.00 | 0.00 | 0.00 | 49 | 1013.8 |
| 20260508141526 | 15 | 229 | 11.3 | 25.7 | 0.00 | 0.00 | 0.00 | 50 | 1014.2 |
| 20260508141350 | 15 | 205 | 9.7 | 25.7 | 0.00 | 0.00 | 0.00 | 52 | 1014.0 |
| 20260508140844 | 15 | 133 | 8.0 | 22.5 | 0.00 | 0.00 | 0.00 | 49 | 1013.9 |
| 20260508140344 | 15 | 105 | 6.4 | 17.7 | 0.00 | 0.00 | 0.00 | 49 | 1014.1 |
| 20260508140100 | 15 | 217 | 4.8 | 16.1 | 0.00 | 0.00 | 0.00 | 52 | 1014.4 |
| 20260508135839 | 15 | 155 | 6.4 | 17.7 | 0.00 | 0.00 | 0.00 | 51 | 1014.0 |
| 20260508135605 | 15 | 120 | 6.4 | 17.7 | 0.00 | 0.00 | 0.00 | 54 | 1014.0 |
| 20260508134812 | 15 | 222 | 6.4 | 14.5 | 0.00 | 0.00 | 0.00 | 52 | 1014.1 |
| 20260508134532 | 14 | 97 | 4.8 | 14.5 | 0.00 | 0.00 | 0.00 | 54 | 1014.4 |
| 20260508134246 | 14 | 126 | 6.4 | 19.3 | 0.00 | 0.00 | 0.00 | 54 | 1014.1 |
| 20260508133721 | 14 | 142 | 8.0 | 19.3 | 0.00 | 0.00 | 0.00 | 56 | 1014.1 |
| 20260508133216 | 14 | 148 | 6.4 | 20.9 | 0.00 | 0.00 | 0.00 | 54 | 1014.1 |
| 20260508133017 | 13 | 288 | 8.0 | 20.9 | 0.00 | 0.00 | 0.00 | 53 | 1014.5 |
| 20260508132714 | 13 | 286 | 6.4 | 20.9 | 0.00 | 0.00 | 0.00 | 55 | 1014.1 |
| 20260508132209 | 13 | 288 | 6.4 | 20.9 | 0.00 | 0.00 | 0.00 | 55 | 1014.1 |
| 20260508131709 | 13 | 285 | 4.8 | 16.1 | 0.00 | 0.00 | 0.00 | 58 | 1014.1 |
| 20260508131527 | 12 | 284 | 4.8 | 12.9 | 0.00 | 0.00 | 0.00 | 58 | 1014.5 |
| 20260508131139 | 12 | 284 | 3.2 | 11.3 | 0.00 | 0.00 | 0.00 | 61 | 1014.1 |
| 20260508130638 | 12 | 285 | 3.2 | 8.0 | 0.00 | 0.00 | 0.00 | 62 | 1014.1 |
| 20260508130136 | 12 | 285 | 3.2 | 6.4 | 0.00 | 0.00 | 0.00 | 62 | 1014.1 |
| 20260508130104 | 12 | 285 | 3.2 | 6.4 | 0.00 | 0.00 | 0.00 | 62 | 1014.4 |
| 20260508125609 | 12 | 289 | 4.8 | 12.9 | 0.00 | 0.00 | 0.00 | 62 | 1014.1 |